sat.trackr.live / text

‹ back to catalog

SITRO-AIS 25

NORAD 59066 · 2024-039R

PAYLOAD ACTIVE UNKNOWN

§ Identity

Operator
Country
CIS
Launch date
2024-02-29
Launch site
VOSTO
Launch vehicle
Mass (kg)
RCS (m²)

Purposes: tech_demo

External: N2YO · Heavens-Above · Gunter

§ Orbital elements

Epoch: 2026-05-25T04:38:39.081696Z

Period
96.43 min
Inclination
95.3915°
Eccentricity
0.0146566
Mean motion
14.93340472 rev/d
Perigee alt
485.4 km
Apogee alt
689.6 km
Semi-major
6,965.7 km
B*
3.0564e-4
RAAN
219.2935°
Arg perigee
49.1077°
Mean anomaly
312.2736°
Rev number
12,129

§ Raw data

SITRO-AIS 251 59066U 24039R   26145.19350789  .00003925  00000+0  30564-3 0  99932 59066  95.3915 219.2935 0146566  49.1077 312.2736 14.93340472121293

JSON: /api/v1/satellites/59066 · /tle

For live sub-satellite position, see the globe view (requires WebGL).

§ Visibility from observer

Set your observer location to see the next 7 days of passes ≥ 10°. The values pass through the URL so the page stays shareable.

No JS? Fill the form by hand. The geolocation button needs JavaScript.

§ Radio — SatNOGS DB

ModeDescriptionDownlinkUplink
GMSK USP Mode U - GMSK2k4 USP 401.215 MHz

1 transmitter · refreshed weekly from db.satnogs.org